Showing default

HISPASAT 30W-6, 43228

Orbit data source: Space-Track

HISPASAT 30W-6, 43228 is a payload satellite owned by Hispasat (ES) in GEO that was launched on Tue, 06 Mar 2018 UTC via an FALCON 9 launch vehicle from the Air Force Eastern Test Range (AFETR). Payloads include a variety of satellites, spacecraft, and rockets equipped with specific instruments for various scientific and technological missions. These include communications satellites like Starlink; space stations such as the ISS; scientific satellites like the Hubble; Earth observation satellites from companies like Planet Labs, Umbra, and HawkEye 360; GPS; miniature CubeSats for education and research; and military/defense satellites.

Not visible in the next 10 days
HISPASAT 30W-6 details
Identifier
43228, 2018-023A
Orbit
GEO
Last TLE update10 hours ago
Origin
Flag of ESHispasat (ES / SPN)
ManufacturerMaxar SSL
MissionOperational Commercial Communications
Bus & MotorLS-1300, R-4D
Mass6,092 kg wet, 2,634 kg dry
Launch date (UTC)
2018-03-06 (7 years ago)
Launch vehicle
FALCON 9
Launch site
Air Force Eastern Test Range (AFETR)
Object type
Payload
Rocket body
Debris
Shape & HBRBox + 2 Pan, 26.1 m
Radar Cross Section120.644 m², Large (>1 m²)

Expand to show TLE details & history

TLE from 10 hours ago
0 HISPASAT 30W-6
1 43228U 18023A   24361.07896812 -.00000188  00000-0  00000-0 0  9998
2 43228   0.0424  42.2054 0003330 263.9825 147.3069  1.00272125 25010
Epoch: 2024-12-26T01:53Z
Definitive object data (Epoch: 2024-12-26T01:53:42.845Z)
Latitude0.05175°
Longitude-29.98415°
Altitude35,797.846 km
Speed3.074 km/s
True Right ascension06h 14m 01s
True Declination0° 03' 06"
Sunlit
Object was in daylight at TLE epoch
Visualization TLE readout
Latitude-0.03649°
Longitude124.38349°
Altitude35,778.587 km
Speed3.075 km/s
Apparent Right ascension16h 57m 54s
Apparent Declination-5° 41' 03"
Sunlit
Object is in daylight
Visualization observer readout
Local Sidereal Time11:31:10
Azimuth99.701° ESE
Elevation2.684°
Doppler factor1
Orbital elements
Apogee altitude35,801.611 km
Perigee altitude35,773.529 km
Semi-major axis42,165.707 km
Eccentricity0.000333
Inclination0.0424°
RAAN42.2054°
Arg. of periapsis263.9825°
True anomaly147.3275°
Mean anomaly147.3069°
Eccentric anomaly147.3172°
Mean motion0.25067 °/min
BSTARUnknown
Orbital period1436.15 mins
Loading historical data...
43228 neighbors
Authenticating...
Loading maneuver chart data...
Loading historical data...
Loading historical data...
Loading historical data...
Loading historical data...
Loading historical data...
Loading historical data...
Loading historical data...
Other satellites on launch #23 in the year 2018 (2018-03-06 UTC)

HISPASAT 30W-6 Visibility forecast

Observer location: undefined°, undefined

HISPASAT 30W-6 is not visible in the next 10 days
Span
Click to sort rows by Start time (UTC) header in descending order
Start Az.
Max El. time (UTC)
Max El. Az.
Max El.
End time (UTC)
End Az.
|